SCP
2 2 2 2 2 2 2 2 2 2 1 2 2 2 1 1 2 1 1 1 2 2 2 2 2 3 3 3 4 4 3 2 2 2 2 2 1 1 1 1 1 1 1
2 2 2 2 2 2 2 2 2 1 1 1 2 1 2 2 2 2 1 1 2 2 2 2 2 3 3 3 4 4 3 2 2 2 2 1 1 1 1 1 1 1 1
3 3 2 2 2 2 2 2 2 2 1 1 1 1 1 2 2 2 2 2 2 2 2 2 2 3 3 3 3 3 3 2 2 2 1 1 1 1 1 1 1 1 1
3 3 3 3 3 2 2 2 2 2 2 1 1 1 1 2 2 2 2 2 2 2 2 2 3 3 3 3 3 3 2 2 2 2 1 1 1 1 1 1 1 1 1
4 4 3 3 3 3 3 2 2 2 2 2 2 2 2 2 2 2 2 2 3 2 2 3 3 3 3 3 3 3 2 2 2 2 1 1 1 1 1 1 1 1 2
4 4 4 3 3 3 3 2 2 2 2 2 2 2 3 3 3 2 2 3 3 2 3 3 3 3 3 3 3 3 3 2 2 2 2 1 1 1 1 1 2 2 2
3 3 3 3 3 3 3 2 2 2 2 2 2 3 3 4 3 2 2 3 3 2 2 3 4 4 3 3 3 3 3 3 3 2 2 2 2 1 1 1 2 2 2
3 3 2 2 2 2 2 2 2 2 2 2 3 4 5 4 2 1 2 2 2 2 2 3 4 4 4 3 3 3 3 3 3 2 2 2 2 2 2 2 2 2 2
5 4 3 3 3 3 3 3 3 3 2 3 3 5 5 4 2 1 1 1 2 2 2 2 3 3 4 3 3 2 2 2 2 2 2 2 2 2 2 2 1 1 1
6 5 5 5 5 4 4 4 4 4 3 3 4 5 4 3 1 1 1 2 2 2 2 2 2 2 3 3 3 3 2 2 2 2 2 2 2 2 1 1 1 1 1
6 6 6 7 7 6 5 5 5 5 5 4 4 4 4 3 2 1 1 2 2 2 2 2 2 2 2 2 3 3 2 1 1 1 1 2 1 1 1 1 1 1 1
6 6 7 8 8 7 6 6 5 5 6 5 4 4 5 4 3 2 2 2 2 2 2 2 2 2 2 2 2 2 2 1 1 1 1 1 1 1 1 1 1 1 1
5 6 7 8 8 8 7 6 6 5 5 5 5 4 4 5 4 2 2 2 2 2 2 2 2 2 2 2 2 2 1 1 1 1 1 1 1 1 1 1 1 1 1
5 7 9 10 10 10 9 7 7 6 5 4 4 4 4 4 3 3 2 2 2 2 2 2 2 2 2 2 2 1 1 1 1 1 1 1 1 1 1 1 1 1 0
8 9 12 13 14 12 10 9 8 6 4 4 4 4 4 4 4 3 3 3 2 2 2 2 2 2 2 2 2 2 2 1 1 0 0 1 1 1 1 1 1 1 1
9 10 12 14 13 11 9 8 7 6 4 4 4 4 4 4 4 3 3 3 3 3 2 2 2 2 2 2 2 2 3 2 1 1 0 0 0 0 0 1 1 1 0
8 9 11 12 10 8 7 7 6 6 5 5 5 5 5 4 4 3 3 3 4 4 3 3 3 3 3 3 3 4 3 3 2 1 1 0 0 0 0 0 0 0 0
9 9 11 12 11 9 8 8 8 7 8 8 8 7 7 6 6 5 4 3 4 4 4 3 3 3 3 3 4 4 4 3 2 1 1 0 0 0 0 0 0 0 0
11 10 11 13 13 12 11 11 10 10 10 11 11 11 11 10 8 7 5 4 4 4 4 4 4 3 3 3 4 4 3 2 2 1 1 1 0 0 0 0 0 0 0
10 10 11 12 13 13 13 13 12 12 13 13 14 15 14 13 11 9 7 5 4 4 4 4 3 3 4 5 5 4 3 2 1 1 1 1 1 0 0 0 0 0 0
8 9 10 10 11 11 11 11 11 12 14 15 16 17 17 15 13 11 9 7 5 4 4 3 3 3 5 7 6 4 3 2 2 1 1 1 1 1 1 1 0 0 0
9 9 10 9 9 8 6 6 7 10 12 15 16 17 17 15 14 12 10 7 6 4 3 3 3 3 5 6 6 4 3 2 2 2 2 1 1 1 1 1 1 0 0
9 9 9 9 8 7 5 3 4 6 10 13 16 17 16 14 14 13 11 8 6 5 3 3 3 4 5 5 6 5 3 3 2 2 2 2 1 1 1 1 1 0 0
9 9 8 8 8 7 5 3 3 4 8 10 13 15 16 15 14 13 13 11 9 6 3 3 3 4 5 5 6 4 3 2 2 3 2 2 2 1 1 1 1 0 0
9 8 7 7 7 7 6 4 3 5 7 9 10 12 13 14 13 12 13 13 11 7 4 2 3 3 3 3 4 3 3 2 2 3 3 2 2 1 1 1 1 1 0
9 8 7 6 6 6 6 4 3 6 8 9 9 10 10 11 11 10 12 14 12 8 4 3 2 2 1 1 2 3 3 3 3 3 3 2 2 1 1 2 1 1 1
Wind_Speed
2 2 1 2 2 2 2 2 2 2 2 2 2 2 1 1 1 2 3 9 10 10 10 9 9 9 8 8 7 7 7 8 7 7 7 7 8 8 8 8 7 6 6
2 2 2 1 1 2 2 2 3 2 2 1 2 1 1 1 2 3 4 6 9 9 9 9 9 8 8 7 7 7 7 7 7 7 7 7 7 7 8 8 8 7 7
2 2 2 1 1 2 2 2 2 1 2 2 2 2 1 2 1 2 3 4 6 8 9 9 9 8 8 7 7 6 6 7 7 6 6 6 7 7 7 7 7 7 7
2 2 2 1 1 1 2 2 2 1 1 1 1 1 1 1 1 1 3 4 4 4 7 9 9 8 8 8 7 7 6 6 6 5 5 6 7 7 8 8 8 8 8
2 2 2 1 2 1 1 2 2 1 1 1 1 2 1 1 1 1 2 3 4 4 4 7 9 8 8 7 7 7 6 6 6 5 5 5 6 6 7 8 8 8 9
2 2 2 2 1 1 1 1 1 2 2 2 2 2 1 1 1 1 2 2 3 4 5 5 5 6 7 6 6 6 6 5 5 5 5 5 6 6 6 7 8 8 9
2 1 1 2 1 1 1 2 2 3 2 2 1 1 1 2 2 1 2 2 3 3 4 5 4 3 4 7 6 6 5 5 5 5 5 5 5 6 6 6 8 9 9
1 1 1 1 1 1 2 2 1 1 2 2 1 1 1 1 0 1 2 3 3 3 2 4 4 4 3 3 5 6 5 4 4 5 5 5 5 5 6 6 7 9 10
2 1 2 0 1 1 1 1 1 2 1 1 1 1 1 1 0 0 1 2 3 2 2 2 2 4 4 3 4 5 6 5 5 5 5 5 5 5 5 6 6 7 8
2 2 2 1 0 0 1 1 1 1 1 1 0 0 0 0 0 0 1 1 2 2 2 1 1 2 3 3 4 6 6 5 5 5 5 5 5 4 5 6 6 6 7
1 1 1 1 1 0 0 1 0 1 1 1 1 0 0 1 1 1 1 1 1 1 2 2 2 2 2 3 3 4 6 6 5 5 4 4 4 5 4 4 4 5 6
1 1 1 1 1 1 1 1 0 1 1 1 1 0 0 1 1 1 1 1 1 1 2 2 2 2 2 2 4 5 6 6 5 5 4 3 3 4 4 4 4 5 5
1 2 1 1 1 1 1 1 1 1 1 1 1 1 1 1 1 1 1 1 1 1 1 2 2 2 2 2 3 5 6 6 6 5 4 3 3 3 3 3 3 4 5
1 2 2 1 1 1 1 1 1 2 1 1 2 2 1 1 1 1 1 1 1 1 1 2 1 2 2 2 4 6 4 6 6 5 5 4 3 3 3 3 3 3 3
1 1 2 1 1 1 1 1 2 1 1 2 2 2 2 1 1 1 1 2 2 1 1 1 1 1 2 2 5 4 3 6 7 6 6 5 5 4 4 3 3 3 2
0 0 1 1 1 1 1 1 2 2 2 2 2 2 2 2 1 2 2 2 2 2 1 1 2 1 2 2 4 3 3 7 8 8 7 7 6 5 4 4 4 3 3
1 1 1 1 1 1 1 1 2 1 2 2 2 2 3 2 2 2 1 1 1 2 2 2 1 1 1 2 2 2 3 4 5 9 9 8 7 7 6 5 5 4 4
2 1 1 1 2 1 1 2 2 2 2 2 3 2 3 2 2 2 1 2 2 2 2 2 2 2 2 2 3 3 3 4 3 7 10 9 8 7 7 7 6 5 5
2 2 2 2 2 2 2 2 2 2 2 2 2 2 3 3 2 2 3 2 2 2 2 2 2 2 2 2 2 2 3 2 3 4 8 9 9 8 8 7 7 6 6
3 3 3 3 3 3 3 2 2 3 2 3 2 2 3 2 2 3 3 3 2 2 2 2 2 2 1 2 2 2 2 1 2 2 4 5 7 8 8 7 7 7 7
4 3 3 3 3 3 3 2 3 4 3 3 3 3 3 2 2 2 2 2 2 2 2 2 2 1 1 1 2 2 2 2 2 1 1 3 3 3 5 6 7 8 8
3 3 3 3 4 4 3 3 2 3 3 3 4 3 3 4 4 5 5 5 5 4 3 3 3 2 2 2 2 2 2 2 2 1 1 2 3 3 3 4 6 9 9
3 3 3 4 4 3 3 3 3 4 4 3 4 3 4 4 4 4 5 6 7 8 7 5 4 3 3 3 2 3 2 2 3 2 2 2 2 2 2 3 6 8 9
3 3 4 4 4 4 4 4 4 5 5 5 4 4 4 3 3 2 3 4 5 5 6 6 4 4 3 2 3 3 3 3 3 3 2 2 2 2 1 2 5 7 7
4 4 4 4 4 4 5 5 4 4 4 5 5 4 3 3 2 2 3 4 4 3 4 4 4 4 4 4 3 2 2 2 3 3 2 2 2 1 1 1 3 6 6
4 4 4 4 5 4 6 7 6 4 4 4 3 3 3 3 3 3 3 3 4 3 3 3 3 4 4 5 6 4 3 3 3 2 2 1 1 1 2 1 1 2 3
Wind_Direction
163 165 169 170 188 190 193 204 219 229 219 223 228 233 234 237 195 167 153 165 170 176 181 187 188 191 198 203 202 200 202 201 199 198 199 199 200 202 204 202 205 205 207
138 154 164 174 202 190 195 196 198 212 226 212 206 220 240 217 209 175 164 169 176 181 184 187 189 191 195 199 199 197 195 197 196 197 201 203 202 204 207 205 204 205 205
151 172 159 177 200 184 187 188 196 194 208 207 197 199 223 252 223 188 171 168 172 183 186 188 189 189 191 194 194 196 195 196 194 197 201 204 204 206 209 206 204 204 207
159 154 156 190 201 194 190 173 174 178 202 221 199 218 216 213 233 193 165 160 167 169 181 185 183 185 186 188 190 191 189 187 188 194 202 205 207 209 212 210 209 210 212
168 161 168 186 198 182 175 195 148 168 202 212 209 215 220 188 183 193 152 157 164 159 155 170 180 181 181 183 187 190 187 187 189 192 200 206 208 208 212 212 213 214 216
161 171 166 178 199 167 173 173 156 180 210 219 228 207 204 183 163 175 175 158 157 161 161 157 167 177 179 179 183 188 191 194 194 200 207 210 212 212 215 215 217 217 217
130 158 146 165 195 171 182 191 194 205 208 208 215 240 239 221 177 165 163 155 148 149 153 153 155 155 164 181 180 179 183 193 204 209 217 219 219 219 223 225 227 225 222
125 153 114 177 182 171 179 203 211 238 241 204 210 231 227 228 236 175 151 160 144 136 136 144 149 153 160 158 163 173 181 191 205 215 222 224 225 229 232 236 238 232 224
144 107 124 154 201 181 156 202 215 216 244 253 222 201 216 207 344 134 175 137 134 131 129 125 147 160 165 162 156 170 183 193 205 217 224 224 226 234 240 249 252 243 232
157 151 149 171 208 173 141 224 170 239 224 251 270 158 204 147 172 353 6 105 127 132 148 149 142 164 162 157 159 160 177 189 201 215 224 226 228 236 243 248 252 244 231
161 147 146 155 159 214 173 281 91 290 264 258 264 227 244 256 226 197 215 176 142 154 161 165 165 180 174 174 160 161 176 187 196 207 222 228 230 237 246 253 252 247 236
173 160 139 144 191 212 196 220 230 261 291 322 314 307 238 226 210 208 235 229 197 200 176 173 184 185 184 167 160 160 170 184 194 205 213 220 226 237 244 248 249 245 237
169 162 167 184 217 220 216 211 221 264 265 265 261 256 266 259 191 188 205 243 241 229 191 185 191 184 176 147 150 160 170 180 187 194 198 209 225 233 236 239 241 241 235
177 147 170 197 216 211 219 198 215 218 228 244 255 246 259 257 233 227 214 208 247 255 228 206 172 158 143 143 145 165 163 174 181 186 190 195 206 217 224 228 233 238 232
195 126 167 186 205 209 233 214 217 227 213 228 254 252 247 252 229 233 223 211 209 239 250 212 185 167 160 136 160 180 168 181 191 194 193 197 201 206 216 220 223 222 223
18 170 187 182 214 223 234 245 231 216 213 222 227 234 250 268 264 241 234 227 213 207 249 236 213 193 174 173 175 193 185 189 198 192 189 197 202 204 208 212 217 217 219
217 223 246 234 237 237 234 232 240 237 228 236 246 228 228 234 262 269 246 230 216 199 223 259 221 212 194 186 178 205 194 196 193 194 195 197 203 208 208 208 212 217 222
230 224 224 231 233 224 236 250 253 249 234 230 237 241 246 232 240 253 262 249 233 223 211 232 239 221 215 199 198 223 217 210 192 193 193 197 203 208 211 211 211 215 220
233 229 230 234 246 247 240 248 256 261 260 251 242 235 238 232 235 241 248 250 241 240 221 227 237 225 208 209 201 232 246 223 218 192 194 202 206 208 210 212 213 214 218
233 226 227 231 230 239 245 243 248 252 256 258 254 249 248 237 234 249 250 247 247 241 233 233 233 226 213 210 187 219 252 235 241 219 191 196 205 210 213 215 212 209 214
249 234 230 232 232 234 235 230 247 247 242 250 251 246 243 220 218 235 261 264 262 247 242 237 241 234 226 214 217 224 241 239 239 228 191 203 195 204 215 215 211 212 215
254 248 237 233 242 247 225 199 235 265 249 246 249 248 230 216 214 215 227 238 238 238 237 240 240 236 232 225 209 230 240 249 252 217 217 247 206 205 208 194 194 203 212
244 252 247 237 235 236 216 207 225 252 258 252 251 249 262 238 212 217 226 235 238 238 229 234 246 244 238 226 214 231 240 245 252 236 223 255 240 228 210 204 196 202 205
243 247 249 244 235 228 211 215 230 245 252 247 243 244 247 241 247 253 246 245 241 239 233 233 243 251 252 246 227 230 232 246 253 246 217 245 242 235 216 192 197 196 196
248 243 245 245 241 226 210 214 215 250 247 247 243 243 249 233 228 246 252 257 261 253 243 236 240 245 238 239 234 238 236 233 254 249 213 220 243 261 250 215 196 193 196
247 249 245 243 240 231 210 212 210 244 253 248 239 229 220 214 199 211 235 253 260 267 269 249 238 239 232 229 222 215 225 234 252 252 218 201 229 251 286 249 179 176 202